CPA734 LPPS-EDDL

Flight info

Callsign CPA734
Flight time 3h 11m
Altitude 34000
Route OTZIL DCT RULET DCT NASAS DCT OLBOD DCT XAMAX DCT BALNO DCT RONSI N873 DELOG DCT YURZI UL14 TEPRA UN867 MOKOR UN873 BAZOS DCT CMB DCT MEDIL/N0486F350 DCT DIBIR DCT LMA LMA1A
Aircraft B748/H-SDE3FGHIM1M2RWXY/LB1

Departure

Time 2026-05-04 14:25
Airport Porto Santo Airport (LPPS)

Arrival

Time 2026-05-04 17:36
Airport Düsseldorf Airport (EDDL)
Time Latitude Longitude Altitude Speed Heading
2026-05-04 13:29 33.07197 -16.34648 298 ft 0 kts 135°
2026-05-04 14:14 33.07186 -16.34642 295 ft 2 kts 169°
2026-05-04 14:14 33.07153 -16.34643 293 ft 9 kts 180°
2026-05-04 14:15 33.07007 -16.34656 281 ft 7 kts 205°
2026-05-04 14:15 33.06973 -16.34723 280 ft 5 kts 251°
2026-05-04 14:16 33.06964 -16.34814 282 ft 7 kts 265°
2026-05-04 14:16 33.06961 -16.34876 280 ft 8 kts 266°
2026-05-04 14:17 33.06980 -16.34973 282 ft 4 kts 316°
2026-05-04 14:17 33.06991 -16.34980 282 ft 2 kts 335°
2026-05-04 14:17 33.07128 -16.34987 287 ft 11 kts 358°
2026-05-04 14:18 33.07190 -16.34989 294 ft 7 kts 359°
2026-05-04 14:18 33.07276 -16.34993 297 ft 7 kts 356°
2026-05-04 14:19 33.07408 -16.35001 296 ft 12 kts 357°
2026-05-04 14:19 33.07505 -16.35005 301 ft 15 kts 359°
2026-05-04 14:19 33.07617 -16.35008 302 ft 17 kts 358°
2026-05-04 14:19 33.07737 -16.35013 306 ft 18 kts 358°
2026-05-04 14:20 33.07823 -16.35016 309 ft 19 kts 358°
2026-05-04 14:20 33.07946 -16.35022 313 ft 16 kts 358°
2026-05-04 14:20 33.08041 -16.35025 317 ft 11 kts 358°
2026-05-04 14:21 33.08183 -16.35048 320 ft 9 kts 329°
2026-05-04 14:21 33.08236 -16.35097 322 ft 10 kts 321°
2026-05-04 14:21 33.08295 -16.35153 323 ft 11 kts 321°
2026-05-04 14:21 33.08362 -16.35217 328 ft 14 kts 321°
2026-05-04 14:22 33.08446 -16.35296 329 ft 17 kts 322°
2026-05-04 14:22 33.08542 -16.35366 333 ft 11 kts 349°
2026-05-04 14:22 33.08606 -16.35355 336 ft 9 kts 18°
2026-05-04 14:22 33.08672 -16.35327 337 ft 12 kts 19°
2026-05-04 14:23 33.08742 -16.35199 354 ft 8 kts 116°
2026-05-04 14:23 33.08711 -16.35129 352 ft 11 kts 122°
2026-05-04 14:23 33.08667 -16.35058 354 ft 5 kts 144°
2026-05-04 14:24 33.08642 -16.35051 351 ft 3 kts 171°
2026-05-04 14:24 33.08617 -16.35047 347 ft 4 kts 174°
2026-05-04 14:24 33.08483 -16.35036 334 ft 52 kts 178°
2026-05-04 14:24 33.07858 -16.35012 311 ft 127 kts 178°
2026-05-04 14:25 33.06757 -16.34969 385 ft 179 kts 178°
2026-05-04 14:25 33.03989 -16.34888 1430 ft 223 kts 179°
2026-05-04 14:25 33.02349 -16.34843 1961 ft 247 kts 178°
2026-05-04 14:26 33.00604 -16.34783 2480 ft 249 kts 177°
2026-05-04 14:26 32.98971 -16.34201 2980 ft 252 kts 148°
2026-05-04 14:26 32.97765 -16.32674 3468 ft 261 kts 118°
2026-05-04 14:26 32.97276 -16.30522 3684 ft 280 kts 93°
2026-05-04 14:27 32.97476 -16.28245 3620 ft 275 kts 79°
2026-05-04 14:27 32.97910 -16.25994 3626 ft 280 kts 77°
2026-05-04 14:27 32.98386 -16.23807 4316 ft 270 kts 77°
2026-05-04 14:27 32.98871 -16.21633 5128 ft 274 kts 76°
2026-05-04 14:28 32.99360 -16.19415 5887 ft 279 kts 76°
2026-05-04 14:28 33.00072 -16.17265 6630 ft 281 kts 56°
2026-05-04 14:28 33.01270 -16.15413 7361 ft 283 kts 49°
2026-05-04 14:28 33.02579 -16.13665 8098 ft 284 kts 47°
2026-05-04 14:29 33.05251 -16.10196 9598 ft 284 kts 46°
2026-05-04 14:29 33.07957 -16.06658 10711 ft 298 kts 46°
2026-05-04 14:30 33.09410 -16.04756 10845 ft 321 kts 46°
2026-05-04 14:30 33.10957 -16.02737 11095 ft 341 kts 46°
2026-05-04 14:30 33.14346 -15.98323 11670 ft 380 kts 46°
2026-05-04 14:31 33.16176 -15.95935 11985 ft 400 kts 46°
2026-05-04 14:31 33.20036 -15.90893 13352 ft 420 kts 46°
2026-05-04 14:32 33.24041 -15.85664 14823 ft 432 kts 46°
2026-05-04 14:32 33.26082 -15.82993 15530 ft 437 kts 46°
2026-05-04 14:32 33.28144 -15.80289 16244 ft 442 kts 46°
2026-05-04 14:32 33.30225 -15.77552 16920 ft 447 kts 46°
2026-05-04 14:33 33.32323 -15.74784 17594 ft 452 kts 46°
2026-05-04 14:33 33.34440 -15.71978 18254 ft 457 kts 46°
2026-05-04 14:33 33.36583 -15.69128 18839 ft 462 kts 46°
2026-05-04 14:33 33.38742 -15.66249 19405 ft 467 kts 46°
2026-05-04 14:34 33.40925 -15.63333 19936 ft 472 kts 46°
2026-05-04 14:34 33.43122 -15.60389 20498 ft 477 kts 46°
2026-05-04 14:34 33.45343 -15.57404 21031 ft 482 kts 46°
2026-05-04 14:34 33.47580 -15.54394 21552 ft 487 kts 46°
2026-05-04 14:35 33.49839 -15.51348 22101 ft 491 kts 46°
2026-05-04 14:35 33.52116 -15.48271 22644 ft 495 kts 46°
2026-05-04 14:35 33.54412 -15.45161 23169 ft 499 kts 46°
2026-05-04 14:35 33.56719 -15.42027 23686 ft 504 kts 46°
2026-05-04 14:36 33.59044 -15.38865 24044 ft 508 kts 46°
2026-05-04 14:36 33.61382 -15.35680 24119 ft 509 kts 46°
2026-05-04 14:36 33.63713 -15.32499 24128 ft 507 kts 47°
2026-05-04 14:36 33.66048 -15.29312 24431 ft 510 kts 47°
2026-05-04 14:37 33.68496 -15.26239 24877 ft 511 kts 39°
2026-05-04 14:37 33.71291 -15.23594 25302 ft 512 kts 33°
2026-05-04 14:37 33.74243 -15.21197 25717 ft 514 kts 30°
2026-05-04 14:37 33.77257 -15.18852 26122 ft 517 kts 31°
2026-05-04 14:38 33.80146 -15.16351 26541 ft 522 kts 35°
2026-05-04 14:38 33.83017 -15.13581 26929 ft 525 kts 36°
2026-05-04 14:38 33.85868 -15.10893 27309 ft 527 kts 33°
2026-05-04 14:38 33.88843 -15.08307 27707 ft 530 kts 32°
2026-05-04 14:39 33.91843 -15.05700 28085 ft 533 kts 33°
2026-05-04 14:39 33.94803 -15.02990 28468 ft 537 kts 34°
2026-05-04 14:39 33.97767 -15.00241 28852 ft 539 kts 34°
2026-05-04 14:40 34.03775 -14.94864 30078 ft 536 kts 33°
2026-05-04 14:40 34.06755 -14.92169 30587 ft 536 kts 34°
2026-05-04 14:40 34.09728 -14.89444 31051 ft 536 kts 33°
2026-05-04 14:40 34.12703 -14.86737 31457 ft 536 kts 33°
2026-05-04 14:41 34.15697 -14.84055 31852 ft 536 kts 31°
2026-05-04 14:41 34.18780 -14.81522 32260 ft 534 kts 29°
2026-05-04 14:41 34.25057 -14.76755 33059 ft 533 kts 27°
2026-05-04 14:42 34.31397 -14.72097 33826 ft 533 kts 27°
2026-05-04 14:42 34.34571 -14.69780 34182 ft 532 kts 27°
2026-05-04 14:42 34.37741 -14.67465 34513 ft 532 kts 27°
2026-05-04 14:43 34.40903 -14.65143 34808 ft 532 kts 27°
2026-05-04 14:43 34.44069 -14.62812 35092 ft 532 kts 27°
2026-05-04 14:43 34.47229 -14.60486 35411 ft 531 kts 27°
2026-05-04 14:43 34.50384 -14.58165 35708 ft 530 kts 27°
2026-05-04 14:44 34.53539 -14.55843 35988 ft 530 kts 27°
2026-05-04 14:44 34.56675 -14.53523 36139 ft 527 kts 27°
2026-05-04 14:44 34.62904 -14.48891 36144 ft 522 kts 27°
2026-05-04 14:45 34.69067 -14.44260 36149 ft 519 kts 27°
2026-05-04 14:45 34.75193 -14.39608 36149 ft 519 kts 27°
2026-05-04 14:46 34.81314 -14.34945 36159 ft 519 kts 27°
2026-05-04 14:46 34.87437 -14.30274 36156 ft 519 kts 27°
2026-05-04 14:47 34.93550 -14.25602 36169 ft 518 kts 27°
2026-05-04 14:47 34.99471 -14.20541 36165 ft 522 kts 32°
2026-05-04 14:48 35.05181 -14.15060 36171 ft 523 kts 34°
2026-05-04 14:48 35.10917 -14.09617 36172 ft 522 kts 33°
2026-05-04 14:49 35.16646 -14.04159 36170 ft 522 kts 33°
2026-05-04 14:49 35.22362 -13.98687 36171 ft 522 kts 33°
2026-05-04 14:50 35.28090 -13.93219 36175 ft 522 kts 33°
2026-05-04 14:50 35.33805 -13.87729 36172 ft 522 kts 33°
2026-05-04 14:51 35.39531 -13.82238 36172 ft 523 kts 33°
2026-05-04 14:51 35.45253 -13.76725 36174 ft 523 kts 33°
2026-05-04 14:52 35.50976 -13.71211 36160 ft 522 kts 33°
2026-05-04 14:52 35.56682 -13.65698 36170 ft 522 kts 33°
2026-05-04 14:53 35.62387 -13.60179 36166 ft 522 kts 33°
2026-05-04 14:53 35.68093 -13.54647 36169 ft 522 kts 33°
2026-05-04 14:54 35.73798 -13.49105 36178 ft 522 kts 33°
2026-05-04 14:54 35.79468 -13.43588 36157 ft 522 kts 33°
2026-05-04 14:55 35.85202 -13.37998 36158 ft 522 kts 33°
2026-05-04 14:55 35.90867 -13.32464 36158 ft 523 kts 33°
2026-05-04 14:56 35.96600 -13.26854 36159 ft 523 kts 33°
2026-05-04 14:56 36.02293 -13.21272 36176 ft 523 kts 33°
2026-05-04 14:57 36.07975 -13.15690 36159 ft 522 kts 33°
2026-05-04 14:57 36.13663 -13.10091 36163 ft 522 kts 33°
2026-05-04 14:58 36.19341 -13.04493 36158 ft 522 kts 33°
2026-05-04 14:58 36.24062 -12.99829 36160 ft 522 kts 33°
2026-05-04 14:59 36.30698 -12.93262 36148 ft 522 kts 33°
2026-05-04 15:00 36.39133 -12.84892 36150 ft 519 kts 33°
2026-05-04 15:00 36.44805 -12.79250 36149 ft 519 kts 33°
2026-05-04 15:01 36.53204 -12.70876 36154 ft 519 kts 33°
2026-05-04 15:01 36.58827 -12.65257 36165 ft 517 kts 34°
2026-05-04 15:02 36.64425 -12.59650 36153 ft 515 kts 34°
2026-05-04 15:02 36.70003 -12.54055 36151 ft 515 kts 34°
2026-05-04 15:03 36.75583 -12.48444 36152 ft 515 kts 34°
2026-05-04 15:03 36.81169 -12.42820 36152 ft 515 kts 34°
2026-05-04 15:04 36.86738 -12.37199 36152 ft 514 kts 34°
2026-05-04 15:04 36.92294 -12.31583 36150 ft 514 kts 34°
2026-05-04 15:05 36.96951 -12.26866 36150 ft 514 kts 34°
2026-05-04 15:05 37.02507 -12.21228 36153 ft 514 kts 34°
2026-05-04 15:06 37.08061 -12.15582 36151 ft 515 kts 34°
2026-05-04 15:07 37.16352 -12.07133 36136 ft 514 kts 34°
2026-05-04 15:07 37.21931 -12.01432 36145 ft 514 kts 34°
2026-05-04 15:08 37.27472 -11.95762 36144 ft 514 kts 34°
2026-05-04 15:08 37.32974 -11.90119 36140 ft 514 kts 34°
2026-05-04 15:09 37.38542 -11.84397 36148 ft 513 kts 34°
2026-05-04 15:09 37.44064 -11.78712 36146 ft 513 kts 34°
2026-05-04 15:10 37.52311 -11.70199 36143 ft 513 kts 34°
2026-05-04 15:11 37.60589 -11.61629 36147 ft 513 kts 34°
2026-05-04 15:11 37.66103 -11.55907 36143 ft 512 kts 33°
2026-05-04 15:12 37.71640 -11.50150 36144 ft 512 kts 33°
2026-05-04 15:12 37.77111 -11.44449 36146 ft 513 kts 33°
2026-05-04 15:13 37.82609 -11.38709 36146 ft 513 kts 33°
2026-05-04 15:13 37.88104 -11.32961 36145 ft 513 kts 34°
2026-05-04 15:14 37.93600 -11.27200 36136 ft 513 kts 33°
2026-05-04 15:14 37.99099 -11.21425 36137 ft 513 kts 33°
2026-05-04 15:15 38.04635 -11.15598 36143 ft 513 kts 33°
2026-05-04 15:15 38.10128 -11.09806 36144 ft 513 kts 33°
2026-05-04 15:16 38.18324 -11.01140 36132 ft 513 kts 33°
2026-05-04 15:17 38.26540 -10.92428 36133 ft 514 kts 33°
2026-05-04 15:17 38.34769 -10.83675 36135 ft 514 kts 33°
2026-05-04 15:18 38.40262 -10.77818 36154 ft 514 kts 33°
2026-05-04 15:19 38.48486 -10.69025 36129 ft 514 kts 33°
2026-05-04 15:19 38.56694 -10.60223 36132 ft 514 kts 33°
2026-05-04 15:20 38.62174 -10.54332 36125 ft 515 kts 34°
2026-05-04 15:20 38.67658 -10.48422 36127 ft 515 kts 34°
2026-05-04 15:21 38.73142 -10.42502 36124 ft 515 kts 34°
2026-05-04 15:22 38.81364 -10.33600 36121 ft 516 kts 34°
2026-05-04 15:22 38.89576 -10.24684 36119 ft 516 kts 34°
2026-05-04 15:23 38.95052 -10.18723 36106 ft 517 kts 34°
2026-05-04 15:23 39.00533 -10.12742 36112 ft 517 kts 34°
2026-05-04 15:24 39.11494 -10.00746 36110 ft 517 kts 34°
2026-05-04 15:25 39.16970 -9.94734 36111 ft 518 kts 34°
2026-05-04 15:26 39.25180 -9.85696 36119 ft 517 kts 34°
2026-05-04 15:26 39.33399 -9.76619 36104 ft 519 kts 34°
2026-05-04 15:27 39.41619 -9.67513 36108 ft 520 kts 35°
2026-05-04 15:28 39.49835 -9.58380 36106 ft 519 kts 35°
2026-05-04 15:29 39.58044 -9.49225 36104 ft 519 kts 35°
2026-05-04 15:30 39.77229 -9.27716 36089 ft 521 kts 35°
2026-05-04 15:31 39.85409 -9.18495 36080 ft 521 kts 35°
2026-05-04 15:32 39.99105 -9.02987 36086 ft 523 kts 36°
2026-05-04 15:34 40.12822 -8.87369 36091 ft 523 kts 36°
2026-05-04 15:34 40.21047 -8.77962 36072 ft 524 kts 36°
2026-05-04 15:35 40.29277 -8.68521 36078 ft 526 kts 36°
2026-05-04 15:36 40.37518 -8.59030 36074 ft 526 kts 36°
2026-05-04 15:36 40.43019 -8.52680 36073 ft 526 kts 36°
2026-05-04 15:37 40.48505 -8.46330 36065 ft 526 kts 36°
2026-05-04 15:37 40.53995 -8.39963 36068 ft 526 kts 36°
2026-05-04 15:38 40.59478 -8.33589 36063 ft 526 kts 37°
2026-05-04 15:38 40.64971 -8.27190 36059 ft 526 kts 37°
2026-05-04 15:39 40.70436 -8.20807 36055 ft 524 kts 37°
2026-05-04 15:40 40.78609 -8.11235 36037 ft 524 kts 37°
2026-05-04 15:40 40.84058 -8.04836 36036 ft 524 kts 37°
2026-05-04 15:41 40.89505 -7.98423 36026 ft 524 kts 37°
2026-05-04 15:41 40.94950 -7.91999 36024 ft 524 kts 37°
2026-05-04 15:42 41.00392 -7.85562 36018 ft 525 kts 37°
2026-05-04 15:42 41.05827 -7.79120 36017 ft 525 kts 37°
2026-05-04 15:43 41.11264 -7.72661 36026 ft 525 kts 37°
2026-05-04 15:43 41.16706 -7.66180 36029 ft 526 kts 38°
2026-05-04 15:44 41.22137 -7.59697 36024 ft 526 kts 38°
2026-05-04 15:44 41.27581 -7.53183 36019 ft 527 kts 38°
2026-05-04 15:45 41.33029 -7.46649 36032 ft 527 kts 38°
2026-05-04 15:45 41.38454 -7.40128 36012 ft 525 kts 38°
2026-05-04 15:46 41.43889 -7.33580 36010 ft 526 kts 38°
2026-05-04 15:46 41.49314 -7.27027 36001 ft 526 kts 38°
2026-05-04 15:47 41.53824 -7.21568 36003 ft 526 kts 38°
2026-05-04 15:47 41.59243 -7.14994 35992 ft 526 kts 39°
2026-05-04 15:48 41.64648 -7.08423 35987 ft 525 kts 38°
2026-05-04 15:48 41.72742 -6.98548 35975 ft 525 kts 40°
2026-05-04 15:49 41.77905 -6.91593 35980 ft 527 kts 42°
2026-05-04 15:49 41.83048 -6.84616 35991 ft 525 kts 42°
2026-05-04 15:50 41.88182 -6.77623 35973 ft 526 kts 42°
2026-05-04 15:50 41.93309 -6.70627 35979 ft 526 kts 42°
2026-05-04 15:51 41.98442 -6.63603 35963 ft 526 kts 43°
2026-05-04 15:51 42.03559 -6.56586 35967 ft 525 kts 43°
2026-05-04 15:52 42.08641 -6.49598 35953 ft 525 kts 43°
2026-05-04 15:52 42.13740 -6.42571 35956 ft 525 kts 43°
2026-05-04 15:53 42.18840 -6.35525 35944 ft 525 kts 43°
2026-05-04 15:53 42.23932 -6.28473 35972 ft 525 kts 43°
2026-05-04 15:54 42.29011 -6.21419 35943 ft 522 kts 44°
2026-05-04 15:54 42.34078 -6.14368 35943 ft 522 kts 44°
2026-05-04 15:55 42.39128 -6.07322 35937 ft 522 kts 44°
2026-05-04 15:55 42.44173 -6.00264 35943 ft 522 kts 44°
2026-05-04 15:56 42.49221 -5.93186 35960 ft 521 kts 44°
2026-05-04 15:56 42.54252 -5.86114 35965 ft 521 kts 44°
2026-05-04 15:57 42.59282 -5.79027 35973 ft 521 kts 44°
2026-05-04 15:57 42.64308 -5.71927 35973 ft 521 kts 44°
2026-05-04 15:58 42.69327 -5.64819 35966 ft 522 kts 44°
2026-05-04 15:58 42.74361 -5.57672 35974 ft 522 kts 44°
2026-05-04 15:59 42.79383 -5.50525 35975 ft 523 kts 44°
2026-05-04 15:59 42.84402 -5.43363 35972 ft 523 kts 45°
2026-05-04 16:00 42.89415 -5.36192 35982 ft 523 kts 45°
2026-05-04 16:00 42.94429 -5.29003 35980 ft 522 kts 45°
2026-05-04 16:01 42.99425 -5.21818 35991 ft 522 kts 45°
2026-05-04 16:01 43.04421 -5.14618 35997 ft 522 kts 45°
2026-05-04 16:02 43.09410 -5.07410 36005 ft 522 kts 45°
2026-05-04 16:03 43.16877 -4.96586 36022 ft 521 kts 46°
2026-05-04 16:03 43.21815 -4.89405 36015 ft 521 kts 46°
2026-05-04 16:04 43.26782 -4.82164 36026 ft 521 kts 46°
2026-05-04 16:04 43.34219 -4.71287 36044 ft 521 kts 46°
2026-05-04 16:05 43.39159 -4.64038 36028 ft 519 kts 46°
2026-05-04 16:06 43.46539 -4.53176 36019 ft 519 kts 46°
2026-05-04 16:06 43.54332 -4.45635 36035 ft 514 kts 19°
2026-05-04 16:07 43.58807 -4.43509 36031 ft 513 kts 15°
2026-05-04 16:08 43.72040 -4.36034 36021 ft 516 kts 24°
2026-05-04 16:09 43.88451 -4.26059 36011 ft 515 kts 22°
2026-05-04 16:10 44.01582 -4.18057 35999 ft 515 kts 23°
2026-05-04 16:11 44.14636 -4.10042 36001 ft 515 kts 23°
2026-05-04 16:12 44.34210 -3.97736 36014 ft 514 kts 28°
2026-05-04 16:13 44.46632 -3.87881 36000 ft 515 kts 28°
2026-05-04 16:14 44.59250 -3.77844 36004 ft 529 kts 29°
2026-05-04 16:16 44.75298 -3.65015 35984 ft 532 kts 29°
2026-05-04 16:17 44.91352 -3.52092 35995 ft 531 kts 30°
2026-05-04 16:18 45.04170 -3.41713 35985 ft 531 kts 30°
2026-05-04 16:19 45.20178 -3.28676 35976 ft 530 kts 30°
2026-05-04 16:20 45.36142 -3.15589 35978 ft 530 kts 30°
2026-05-04 16:22 45.52061 -3.02453 35979 ft 531 kts 30°
2026-05-04 16:23 45.71198 -2.86547 35972 ft 530 kts 31°
2026-05-04 16:25 45.90358 -2.70492 35960 ft 532 kts 31°
2026-05-04 16:26 46.12671 -2.51632 35957 ft 531 kts 31°
2026-05-04 16:27 46.19189 -2.46666 35984 ft 530 kts 18°
2026-05-04 16:28 46.30108 -2.44883 35970 ft 529 kts 359°
2026-05-04 16:29 46.55304 -2.39020 35987 ft 532 kts 31°
2026-05-04 16:31 46.70807 -2.24782 35962 ft 528 kts 27°
2026-05-04 16:32 46.89931 -2.09039 35969 ft 527 kts 26°
2026-05-04 16:33 47.02994 -1.99197 35971 ft 528 kts 36°
2026-05-04 16:34 47.11603 -1.89155 35971 ft 528 kts 38°
2026-05-04 16:35 47.28294 -1.70911 35950 ft 526 kts 38°
2026-05-04 16:36 47.36706 -1.60670 35957 ft 526 kts 52°
2026-05-04 16:37 47.43154 -1.47635 35952 ft 521 kts 55°
2026-05-04 16:38 47.52109 -1.30849 35944 ft 521 kts 55°
2026-05-04 16:39 47.63252 -1.09570 35947 ft 523 kts 54°
2026-05-04 16:40 47.72159 -0.92467 35952 ft 524 kts 54°
2026-05-04 16:41 47.83266 -0.70958 35958 ft 524 kts 54°
2026-05-04 16:43 47.94318 -0.49379 35961 ft 524 kts 55°
2026-05-04 16:43 48.00933 -0.36378 35958 ft 524 kts 55°
2026-05-04 16:45 48.14245 -0.10510 35959 ft 523 kts 54°
2026-05-04 16:46 48.25385 0.11118 35960 ft 525 kts 54°
2026-05-04 16:47 48.34260 0.28448 35961 ft 525 kts 54°
2026-05-04 16:48 48.43164 0.45859 35963 ft 526 kts 53°
2026-05-04 16:49 48.52129 0.63254 35941 ft 525 kts 49°
2026-05-04 16:50 48.57715 0.70416 35937 ft 530 kts 35°
2026-05-04 16:50 48.63872 0.76573 35950 ft 528 kts 36°
2026-05-04 16:51 48.72504 0.86797 35956 ft 525 kts 37°
2026-05-04 16:52 48.84174 1.00128 35955 ft 525 kts 38°
2026-05-04 16:53 48.92924 1.10169 35963 ft 525 kts 38°
2026-05-04 16:54 49.04452 1.23852 35988 ft 524 kts 44°
2026-05-04 16:55 49.20343 1.46877 35938 ft 525 kts 45°
2026-05-04 16:56 49.33576 1.66151 35927 ft 524 kts 44°
2026-05-04 16:57 49.41483 1.77723 35936 ft 524 kts 44°
2026-05-04 16:58 49.52004 1.93302 35940 ft 523 kts 49°
2026-05-04 17:00 49.66628 2.18007 35930 ft 520 kts 49°
2026-05-04 17:01 49.78780 2.38710 35925 ft 523 kts 49°
2026-05-04 17:02 49.88530 2.55439 35928 ft 523 kts 49°
2026-05-04 17:03 49.95818 2.68013 35945 ft 522 kts 49°
2026-05-04 17:03 50.03118 2.80675 35937 ft 526 kts 50°
2026-05-04 17:04 50.12850 2.97650 35927 ft 526 kts 50°
2026-05-04 17:05 50.22517 3.14737 35935 ft 524 kts 56°
2026-05-04 17:06 50.25741 3.24808 35968 ft 518 kts 76°
2026-05-04 17:06 50.26673 3.30260 35947 ft 517 kts 79°
2026-05-04 17:07 50.29098 3.44741 35942 ft 520 kts 72°
2026-05-04 17:07 50.32085 3.57132 35945 ft 520 kts 75°
2026-05-04 17:08 50.35955 3.72965 35964 ft 527 kts 60°
2026-05-04 17:09 50.40094 3.82420 35939 ft 526 kts 56°
2026-05-04 17:09 50.44075 3.92019 35938 ft 524 kts 63°
2026-05-04 17:10 50.53596 4.16430 35955 ft 524 kts 61°
2026-05-04 17:11 50.57433 4.26200 35981 ft 525 kts 60°
2026-05-04 17:12 50.63144 4.40878 35957 ft 525 kts 60°
2026-05-04 17:13 50.72657 4.65436 35959 ft 525 kts 60°
2026-05-04 17:14 50.78364 4.80288 35342 ft 530 kts 61°
2026-05-04 17:14 50.80247 4.85212 35009 ft 531 kts 61°
2026-05-04 17:14 50.84095 4.95292 34367 ft 533 kts 61°
2026-05-04 17:15 50.86007 5.00322 34076 ft 533 kts 62°
2026-05-04 17:15 50.89830 5.10403 33383 ft 535 kts 62°
2026-05-04 17:16 50.93656 5.20530 32651 ft 536 kts 62°
2026-05-04 17:16 50.99386 5.35773 31555 ft 540 kts 62°
2026-05-04 17:17 51.01301 5.40887 31001 ft 538 kts 62°
2026-05-04 17:17 51.06924 5.55960 28973 ft 515 kts 62°
2026-05-04 17:18 51.08731 5.60823 28253 ft 505 kts 62°
2026-05-04 17:18 51.12020 5.70408 26905 ft 483 kts 73°
2026-05-04 17:19 51.13434 5.80765 25689 ft 474 kts 84°
2026-05-04 17:19 51.14519 5.91021 24487 ft 467 kts 79°
2026-05-04 17:20 51.16503 6.00739 23326 ft 460 kts 64°
2026-05-04 17:20 51.19186 6.08008 22222 ft 449 kts 58°
2026-05-04 17:20 51.20833 6.12186 21569 ft 439 kts 61°
2026-05-04 17:21 51.23554 6.20661 20289 ft 421 kts 64°
2026-05-04 17:21 51.26244 6.28569 18929 ft 391 kts 62°
2026-05-04 17:22 51.27919 6.33544 18014 ft 376 kts 64°
2026-05-04 17:22 51.28728 6.36023 17498 ft 369 kts 64°
2026-05-04 17:23 51.30158 6.47305 15408 ft 335 kts 91°
2026-05-04 17:23 51.30141 6.50913 14740 ft 327 kts 92°
2026-05-04 17:23 51.30016 6.58062 13410 ft 314 kts 93°
2026-05-04 17:24 51.29940 6.61521 12689 ft 308 kts 92°
2026-05-04 17:24 51.29719 6.71408 10930 ft 287 kts 94°
2026-05-04 17:25 51.29687 6.74563 10439 ft 289 kts 93°
2026-05-04 17:25 51.29639 6.81121 9639 ft 298 kts 93°
2026-05-04 17:26 51.29594 6.87719 9038 ft 298 kts 93°
2026-05-04 17:26 51.29554 6.97479 8079 ft 275 kts 93°
2026-05-04 17:27 51.29555 7.03295 7324 ft 255 kts 93°
2026-05-04 17:27 51.29580 7.08863 6973 ft 250 kts 93°
2026-05-04 17:28 51.31056 7.13818 6977 ft 261 kts 47°
2026-05-04 17:29 51.35069 7.19681 6798 ft 264 kts 43°
2026-05-04 17:29 51.39800 7.22210 5578 ft 249 kts 333°
2026-05-04 17:30 51.43752 7.17483 4370 ft 231 kts 290°
2026-05-04 17:31 51.43917 7.12471 4011 ft 228 kts 259°
2026-05-04 17:31 51.42295 7.05441 3999 ft 223 kts 232°
2026-05-04 17:32 51.40521 7.01663 3772 ft 207 kts 231°
2026-05-04 17:33 51.38075 6.96502 2986 ft 174 kts 231°
2026-05-04 17:33 51.37348 6.94970 2751 ft 170 kts 231°
2026-05-04 17:34 51.35234 6.90514 2090 ft 165 kts 230°
2026-05-04 17:34 51.34538 6.89051 1859 ft 166 kts 230°
2026-05-04 17:35 51.32443 6.84629 1169 ft 170 kts 231°
2026-05-04 17:35 51.31030 6.81649 717 ft 169 kts 229°
2026-05-04 17:35 51.30352 6.80212 468 ft 162 kts 231°
2026-05-04 17:36 51.29654 6.78749 274 ft 168 kts 230°
2026-05-04 17:36 51.28971 6.77315 140 ft 148 kts 232°
2026-05-04 17:36 51.28477 6.76303 139 ft 83 kts 233°
2026-05-04 17:36 51.28216 6.75756 138 ft 46 kts 233°
2026-05-04 17:37 51.28089 6.75525 137 ft 19 kts 204°
2026-05-04 17:37 51.27980 6.75534 136 ft 8 kts 141°
2026-05-04 17:37 51.27978 6.75537 138 ft 0 kts 141°
2026-05-04 17:38 51.27968 6.75548 138 ft 7 kts 143°
2026-05-04 17:39 51.27904 6.75611 138 ft 15 kts 150°
2026-05-04 17:39 51.27866 6.75660 138 ft 10 kts 127°
2026-05-04 17:39 51.27834 6.75818 139 ft 19 kts 94°
2026-05-04 17:40 51.27842 6.75947 138 ft 8 kts 87°
2026-05-04 17:40 51.27843 6.76021 138 ft 5 kts 90°
2026-05-04 17:40 51.27843 6.76083 138 ft 7 kts 90°
2026-05-04 17:40 51.27833 6.76163 138 ft 6 kts 123°
2026-05-04 17:41 51.27814 6.76186 138 ft 4 kts 149°
2026-05-04 17:41 51.27785 6.76213 138 ft 6 kts 150°
2026-05-04 17:41 51.27757 6.76235 138 ft 3 kts 158°
2026-05-04 17:41 51.27750 6.76240 138 ft 0 kts 157°